Starlink 32241

operational
NORAD ID: 60437 Int'l Des: 2024-144 Owner: SPXS Country: US Constellation: starlink
LEOCIRCULAR

关于 Starlink 32241

正在加载描述...

实时位置

正在加载3D地球...

即将过境

高度历史

Altitude vs Time

uPlot chart will show altitude changes over time

两行轨道根数

1 60437U 24144N 25303.14532515 -.00000540 00000-0 -61148-5 0 9990
2 60437 53.1561 103.3983 0000947 91.3850 268.7259 15.30194597 69329
Epoch: Oct 30, 2025 • Age: 40 hours

当前状态

高度 478.9 km
速度 7.63 km/s
星下点 43.14°N, 97°W
发射日期 Aug 12, 2024
运行时间 1.2 years
类型 internet

技术详情

分类 Payload
质量 730.00 kg
干质量 700.00 kg
总质量 730.00 kg
长度 0.30 m
直径 4.10 m
跨度 29.00 m
形状 Box + pan
制造商 SPXS
平台类型 Starlink V2M
阶段状态 In Orbit
所有者/国家 SPXS/US

大型星座

Loading constellations...